This is the latest recevied weather packets stored in our database for station/object EW3591. If no packets are shown the sender has not sent any weather packets the latest 1 day(s).
| Time | Temp. | Humidity | Pressure | Rain* | Wind** | Luminosity | Snow |
|---|---|---|---|---|---|---|---|
| 1778030718 | 8.89° C | 95% | 1008.3 hPa | 0.51 mm | 0.45 m/s, 249° | - | - |
| 1778030597 | 8.89° C | 95% | 1008.4 hPa | 0.76 mm | 0.89 m/s, 245° | - | - |
| 1778030477 | 8.89° C | 95% | 1008.5 hPa | 0.76 mm | 0.89 m/s, 224° | - | - |
| 1778030357 | 8.89° C | 95% | 1008.4 hPa | 0.76 mm | 1.34 m/s, 228° | - | - |
| 1778030236 | 8.89° C | 95% | 1008.5 hPa | 0.76 mm | 1.79 m/s, 226° | - | - |
| 1778030128 | 9.44° C | 95% | 1008.5 hPa | 0.76 mm | 1.34 m/s, 231° | - | - |
| 1778029996 | 8.89° C | 95% | 1008.4 hPa | 0.76 mm | 0.89 m/s, 237° | - | - |
| 1778029876 | 9.44° C | 95% | 1008.3 hPa | 0.76 mm | 1.34 m/s, 233° | - | - |
| 1778029755 | 9.44° C | 95% | 1008.3 hPa | 0.51 mm | 1.34 m/s, 233° | - | - |
| 1778029635 | 9.44° C | 95% | 1008.2 hPa | 0.51 mm | 1.79 m/s, 220° | - | - |
| 1778029515 | 9.44° C | 95% | 1008.2 hPa | 0.51 mm | 1.79 m/s, 222° | - | - |
| 1778029394 | 9.44° C | 95% | 1008.2 hPa | 0.51 mm | 1.34 m/s, 232° | - | - |
| 1778029274 | 9.44° C | 95% | 1008.2 hPa | 0.51 mm | 0.89 m/s, 234° | - | - |
| 1778029154 | 9.44° C | 95% | 1008.1 hPa | 0.51 mm | 0.89 m/s, 234° | - | - |
| 1778029033 | 9.44° C | 94% | 1008.1 hPa | 0.51 mm | 0.45 m/s, 231° | - | - |
| 1778028913 | 9.44° C | 95% | 1007.9 hPa | 0.51 mm | 0 m/s | - | - |
| 1778028793 | 9.44° C | 94% | 1007.8 hPa | 0.51 mm | 0 m/s | - | - |
| 1778028673 | 9.44° C | 94% | 1007.8 hPa | 0.25 mm | 0 m/s | - | - |
| 1778028552 | 9.44° C | 94% | 1007.7 hPa | 0.25 mm | 0 m/s | - | - |
| 1778028432 | 9.44° C | 94% | 1007.8 hPa | 0.25 mm | 0 m/s | - | - |
| 1778028312 | 9.44° C | 94% | 1007.7 hPa | 0.25 mm | 0 m/s | - | - |
| 1778028191 | 9.44° C | 94% | 1007.6 hPa | 0.25 mm | 0 m/s | - | - |
| 1778028071 | 9.44° C | 94% | 1007.6 hPa | 0.25 mm | 0 m/s | - | - |
| 1778027951 | 9.44° C | 94% | 1007.6 hPa | 0.25 mm | 0 m/s | - | - |
| 1778027830 | 9.44° C | 94% | 1007.7 hPa | 0.25 mm | 0 m/s | - | - |
* Rain latest hour (hover to see other rain measurements)
** Current wind speed in m/s (hover to see current wind gust speed)